This is the latest recevied weather packets stored in our database for station/object BG5HLN-13. If no packets are shown the sender has not sent any weather packets the latest 10 day(s).
| Time | Temp. | Humidity | Pressure | Rain* | Wind** | Luminosity | Snow |
|---|---|---|---|---|---|---|---|
| 1788171997 | 33.89° C | 83% | 1003.7 hPa | 13.97 mm | - | - | - |
| 1788171396 | 33.89° C | 82% | 1003.5 hPa | 13.72 mm | - | - | - |
| 1788170796 | 33.89° C | 82% | 1003.4 hPa | 14.99 mm | - | - | - |
| 1788170196 | 33.89° C | 82% | 1003.3 hPa | 12.7 mm | - | - | - |
| 1788169596 | 34.44° C | 82% | 1003.2 hPa | 5.84 mm | - | - | - |
| 1788168996 | 34.44° C | 81% | 1003.2 hPa | 5.84 mm | - | - | - |
| 1788168396 | 34.44° C | 81% | 1003.1 hPa | 6.86 mm | - | - | - |
| 1788167795 | 34.44° C | 82% | 1003.1 hPa | 7.11 mm | - | - | - |
| 1788167195 | 34.44° C | 81% | 1003 hPa | 5.84 mm | - | - | - |
| 1788166595 | 34.44° C | 81% | 1002.9 hPa | 6.6 mm | - | - | - |
| 1788165996 | 34.44° C | 81% | 1002.9 hPa | 6.86 mm | - | - | - |
| 1788165395 | 35° C | 80% | 1002.6 hPa | 6.1 mm | - | - | - |
| 1788164796 | 35° C | 80% | 1002.3 hPa | 5.84 mm | - | - | - |
| 1788164196 | 35° C | 79% | 1002.4 hPa | 5.84 mm | - | - | - |
| 1788163596 | 35.56° C | 78% | 1002.6 hPa | 5.59 mm | - | - | - |
| 1788162998 | 35.56° C | 77% | 1002.6 hPa | 5.59 mm | - | - | - |
| 1788162395 | 36.11° C | 77% | 1002.6 hPa | 11.18 mm | - | - | - |
| 1788161795 | 36.11° C | 77% | 1002.7 hPa | 14.73 mm | - | - | - |
| 1788161195 | 36.11° C | 77% | 1002.8 hPa | 16.76 mm | - | - | - |
| 1788160596 | 36.11° C | 75% | 1002.8 hPa | 16.51 mm | - | - | - |
| 1788159996 | 36.11° C | 74% | 1002.8 hPa | 16 mm | - | - | - |
| 1788159395 | 36.67° C | 74% | 1002.7 hPa | 14.48 mm | - | - | - |
| 1788158795 | 37.22° C | 72% | 1002.8 hPa | 32.51 mm | - | - | - |
| 1788158195 | 37.22° C | 73% | 1002.9 hPa | 30.48 mm | - | - | - |
| 1788157596 | 37.22° C | 72% | 1002.9 hPa | 28.96 mm | - | - | - |
* Rain latest hour (hover to see other rain measurements)
** Current wind speed in m/s (hover to see current wind gust speed)